DW7530 Weather Reports


time (UTC)temp
C
wind
direction
speed
KPH
gust
KPH
rain 1hr
cm
rain 24hr
cm
rain mn
cm
humidity
%
barometer
mb
20260502123006 6 193 1.6 6.4 0.00 0.00 0.00 73 1014.9
20260502121508 5 193 0.0 1.6 0.00 0.00 0.00 78 1014.7
20260502114502 5 193 0.0 6.4 0.00 0.00 0.00 74 1014.6
20260502113100 5 106 0.0 3.2 0.00 0.00 0.00 74 1014.4
20260502111557 5 106 0.0 3.2 0.00 0.00 0.00 77 1014.2
20260502110059 5 106 0.0 0.0 0.00 0.00 0.00 73 1014.2
20260502104551 4 106 0.0 0.0 0.00 0.00 0.00 77 1014.1
20260502103047 3 106 0.0 0.0 0.00 0.00 0.00 79 1013.9
20260502101549 3 106 0.0 0.0 0.00 0.00 0.00 72 1013.2
20260502071527 1 326 0.0 0.0 0.00 0.00 0.00 86 1013.0
20260502070027 1 326 0.0 0.0 0.00 0.00 0.00 86 1012.9
20260502064540 1 326 0.0 0.0 0.00 0.00 0.00 86 1012.9
20260502063032 1 326 0.0 1.6 0.00 0.00 0.00 87 1012.8
20260502061523 1 326 0.0 3.2 0.00 0.00 0.00 87 1012.6
20260502060025 1 326 0.0 0.0 0.00 0.00 0.00 87 1012.8
20260502054525 1 326 0.0 3.2 0.00 0.00 0.00 86 1012.8
20260502053019 1 326 0.0 0.0 0.00 0.00 0.00 85 1012.9
20260502051518 2 326 0.0 0.0 0.00 0.00 0.00 84 1012.9
20260502050022 2 326 0.0 0.0 0.00 0.00 0.00 85 1012.7
20260502044514 2 326 0.0 0.0 0.00 0.00 0.00 84 1012.6
20260502043012 2 326 0.0 0.0 0.00 0.00 0.00 83 1012.6
20260502041508 2 326 0.0 0.0 0.00 0.00 0.00 82 1012.4
20260502040006 3 326 0.0 0.0 0.00 0.00 0.00 81 1012.4
20260502034503 3 326 0.0 3.2 0.00 0.00 0.00 78 1012.3
20260502033100 5 326 0.0 0.0 0.00 0.00 0.00 72 1012.2
20260502031626 5 326 3.2 4.8 0.00 0.00 0.00 70 1012.1
20260502030059 5 326 1.6 4.8 0.00 0.00 0.00 70 1012.0
20260502024554 6 326 0.0 0.0 0.00 0.03 0.00 71 1012.0
20260502023054 6 325 0.0 3.2 0.00 0.03 0.00 68 1011.9
20260502021549 7 326 3.2 8.0 0.00 0.03 0.00 66 1011.9
20260502020106 7 326 1.6 6.4 0.00 0.03 0.00 65 1011.8
20260502014553 7 326 3.2 6.4 0.00 0.03 0.00 64 1011.8
20260502013046 7 326 3.2 8.0 0.00 0.03 0.00 63 1011.7
20260502011550 7 325 3.2 6.4 0.00 0.03 0.00 63 1011.3
20260502010043 8 326 0.0 6.4 0.00 0.03 0.00 59 1011.0
20260502004546 8 326 1.6 3.2 0.00 0.05 0.00 59 1010.6
20260502003037 10 326 1.6 6.4 0.00 0.05 0.00 53 1010.3
20260502001555 10 326 1.6 8.0 0.00 0.05 0.00 52 1010.0
20260502000035 10 326 4.8 8.0 0.00 0.05 0.00 51 1009.6
20260501234529 11 326 3.2 9.7 0.00 0.05 0.00 50 1009.2
20260501233027 11 326 4.8 9.7 0.00 0.05 0.00 48 1008.9
20260501231525 12 332 8.0 12.9 0.00 0.05 0.00 47 1008.5
20260501230022 12 330 8.0 16.1 0.00 0.05 0.00 45 1008.2
20260501224520 12 335 9.7 14.5 0.00 0.10 0.00 41 1008.0
20260501223021 13 308 6.4 16.1 0.00 0.10 0.00 41 1007.8
20260501221516 13 326 8.0 14.5 0.00 0.10 0.00 47 1007.6
20260501220014 12 331 8.0 14.5 0.00 0.10 0.00 52 1007.6
20260501214514 13 292 6.4 12.9 0.00 0.23 0.00 53 1007.4
20260501213012 13 329 4.8 12.9 0.00 0.23 0.00 54 1007.3
20260501211512 13 303 8.0 16.1 0.00 0.23 0.00 53 1007.3
20260501210027 13 306 9.7 12.9 0.00 0.23 0.00 53 1007.0
20260501204511 13 322 6.4 12.9 0.00 0.66 0.00 53 1006.9
20260501203012 13 319 9.7 14.5 0.00 0.66 0.00 52 1006.7
20260501201510 13 304 8.0 12.9 0.00 0.66 0.00 51 1006.6
20260501200009 13 293 8.0 12.9 0.00 0.66 0.00 52 1006.6
20260501194510 13 297 4.8 12.9 0.00 1.32 0.00 53 1006.4
20260501193008 13 336 4.8 12.9 0.00 1.32 0.00 54 1006.3
20260501191511 13 325 9.7 16.1 0.00 1.32 0.00 52 1006.4
20260501190009 13 336 9.7 16.1 0.00 1.32 0.00 53 1006.4
20260501184510 14 296 8.0 16.1 0.00 2.08 0.00 53 1006.4
20260501183007 13 249 9.7 17.7 0.00 2.08 0.00 52 1006.5
20260501181510 15 308 3.2 12.9 0.00 2.08 0.00 53 1006.4
20260501180005 13 195 8.0 16.1 0.00 2.08 0.00 53 1006.5
20260501174503 13 274 1.6 9.7 0.00 2.21 0.00 58 1006.6
20260501173003 12 348 8.0 14.5 0.00 2.21 0.00 58 1006.5
20260501171507 13 267 1.6 20.9 0.00 2.21 0.00 57 1006.3
20260501170100 13 215 4.8 17.7 0.00 2.21 0.00 58 1006.5
20260501164606 12 328 9.7 17.7 0.00 2.36 0.00 56 1006.4
20260501163058 13 199 6.4 12.9 0.00 2.36 0.00 59 1006.4
20260501161607 12 321 9.7 16.1 0.00 2.36 0.00 59 1006.6
20260501160059 12 318 9.7 17.7 0.00 2.36 0.00 59 1006.7
20260501154602 12 339 9.7 19.3 0.00 2.72 0.00 61 1006.8
20260501153104 12 310 6.4 17.7 0.00 2.72 0.00 64 1006.7
20260501151555 11 307 6.4 14.5 0.00 2.72 0.00 66 1006.8
20260501150047 11 311 6.4 17.7 0.00 2.72 0.00 67 1006.8